Torna al catalogo

FENGYUN 1C DEB

AttivoPO
NORAD 30694·DEBRIS·🇨🇳 China

Lanciato May 10, 1999 da Taiyuan Satellite Launch Center

Loading…

Prossimi Passaggi (prossime 24 ore)

TLE

AggiornatoSource: Space-Track

Epoca: Sep 12, 2026, 23:50 UTC

1 30694U 99025ARC 26255.99317825  .00003419  00000-0  30377-3 0  9991
2 30694  99.0639 266.7479 0121416 139.4320 221.6022 14.91471995 41783

Traccia FENGYUN 1C DEB in tempo reale con AllMySat

Download on the App Store